[Date Prev][Date Next][Thread Prev][Thread Next][Date Index][Thread Index]

[jamsat-news:1276] jas2info #189



========================   ºÇ¿·¾ðÊó   ==============================

        Last updated ¡§Fri.26-May.-2000 ¡¡19:10 (JST) #189

====================================================================
   
  £±¡Ë¥¢¥Þ¥Á¥å¥¢ÄÌ¿®±ÒÀ±¾ðÊ󡡣ƣϥ·¥ê¡¼¥º¤Îµ°Æ»Í×ÁÇ¡¢¥Æ¥ì¥á¥È¥ê¡¢
¡¡¡¡¡¡£Ñ£Ó£Ï¤Î¾õ¶·Åù¤ò¤Þ¤È¤á¤Æ¤ß¤Þ¤·¤¿¡¥
¡¡¡¡¡¡
¡¡¡¡¡¡£Æ£Ï¡Ý£²£¹¤Î£µ·î£²£¶Æü¡Ê¶â¡Ë¤Î¥Æ¥ì¥á¥È¥ê¤Ï£Ê£Á£Ò£Ì¤Î¥Û¡¼¥à¥Ú¡¼¥¸¤Î
¡¡¡¡±¿ÍÑͽÄê¤Î¤È¤¦¤ê£±£°¡§£µ£³¡Ê£Ê£Ó£Ô¡Ë¤Î¥Ñ¥¹¤Ç¤Ï¥¢¥Ê¥í¥°·Ï±¿ÍѤˤʤäÆ
¡¡¡¡¤ª¤ê¤Þ¤·¤¿.£Ã£×¿®¹æ¤Ç¥Æ¥ì¥á¥È¥ê¤ò£±£°¡§£µ£´¡Á£±£±¡§£±£±¡Ê£Ê£Ó£Ô¡Ë¤Ë
¡¡¡¡¼õ¿®¤Ç¤­¤Þ¤·¤¿¡£
¡¡¡¡AS18631C1   26May2000
¡¡¡¡10:54-11:07(JST)
¡¡¡¡Freq. 435.805-787MHz  CW
                                                     91 9F 7B BD B9 BB BE B8 
¡¡HI HI AE C7 88 55 18 47 FF 0D 00 2E 49 65 57 5D 91 8F 9C 7E BD B9 BB BE B8 
¡¡HI HI AE 07 88 55 1D 47 FF 0D 00 2E 61 40             A0 84 BD B9 BB BE B8 
¡¡HI HI AE 07 88 55 02 47 FF 0D 00 2E 4A 6D 5A 5A 91 8F 9D 94 BD B9 BB BE B8
¡¡HI HI AE C7 88 55 07 47 FF 0D 00 2E 4E 74 64 54 93 91 9F 8C BD B9 BB BE B9 
¡¡HI HI AE C7 88 55 10 47 FF 0D 00 2E                05 9C 85 BD B9 BB BE B9   
¡¡HI HI AE 07 88 55 15 48 1E 0D 00 2E 5B 72 70 50 94 93 A1 89 BD B9 BB BE B9 
¡¡HI HI AE 07 88 55 1B 48 FF 0D 00 2E 5D 4A 75 4E 95 93 B0 9C BD B9 BB BD B8 
¡¡HI HI AE 07 88 55 1F 48 FF 0D 00 2E 58 6C 77 60 93 90 B0 8D BD B8 BA BE B9 
¡¡HI HI AE C7 88 55 04 48 FF 0D 00 2E 57 60 74 60 92 90 9E 83 BD B8 BA BD B9 
¡¡HI HI AE 07 88 55 0A 48 FF 0D 00 2E 7E 62 84 45 94 92 B0 86 BD B8 BA BD B9 
¡¡HI HI AE C7 88 55 0F 48 FF 0D 00 2E 4E 7C 6F 4F 95 92 B0 9E BD B8 BA BD B9 
¡¡HI HI AE 07 88 55 13 48 0A 0D 00 2E 8C 60 85 46 94 91 B0 90 BD B8 BA BD B8 
¡¡HI HI AE C7 88 55 19 48 FF 0D 00 2E 43 92 79 55 94 91 B0 95 BD B8 BA BD B8
¡¡HI HI AE 07 88 55 03 48 FF 0D 00 2E 39 95 77 49 94 91 B0 95 BC B8 BA BD B9 
¡¡HI HI AE C7 88 55 08 48 FF 0D 00 2E A6 81 7C 61 93 91 B0 7C BC B7 B9 BC B9 
¡¡HI HI AE 07 88 55 0E 48 FF 0D 00 2E 3C 86 8A 43 96 92 B0 8F BC B8 BA BD B9 
¡¡HI HI AE 07 88 55 13 48 FF 0D 00 2E 9A A3 71 50 94 92 A0 83 BC B7 B9 BC B9 
¡¡HI HI AE C7 88 55 18 48 FF 0D 00 2E 4A 76 89 60 92 91 A1 73 BC B7 B9 BC B9 
¡¡HI HI AE C7 88 55 05 48 FF 0D 00 2E 82 B7 6B 60 93 90 B0 A6 BC B7 B9 BC B9 
¡¡HI HI AE C7 88 55 02 48 FF 0D 00 2E 60 70 8F 60 93 91 B0 72 BC B7 B9 BC B9 
¡¡HI HI AE 07 88 55 08 48 FF 1A 00 2E 60 B7 71 4E 94 92 B0 8B BC B7 B8 BC B9¡¡

¡¡AS18618C1   25May2000
¡¡11:55-12:05(JST)

¡¡HI HI AE C7 88 55 15 47 FF 0D 00 2E 2A 70 8B 40 94 91 B0 85 BB B7 BA BC B8 
¡¡HI HI AE C7 88 55 1A 47 FF 0D 00 2E  8 34 8D 60 93 90 B0 92 BA B7 BA BC B8 
¡¡HI HI AE C7 88 55 1F 47 FF 0D 00 2E 2B 5E 8C 60 92 90 B0 69 BA B7 BA BB B8 
¡¡HI HI AE C7 88 55 04 47 FF 0D 00 2E 80 3A 89 60 92 90 B0 8A BA B7 BA BB B8 
¡¡HI HI AE C7 88 55 0A 47 FF 0D 00 2E 30 48 8A 60 92 66 B0 67 BA B7 BA BB B8 
¡¡HI HI AE C7 88 55 0F 47 FF 0D 00 2E 6E 46 7D 60 92 90 B0 82 BA B7 BA BB B9 
¡¡HI HI AE C7 88 55 14 47 FF 0D 00 2E 37 35 88 60 92 90 B0 85 BA B6 BA BB B9 

¡¡AS18591C1  23May2000
¡¡11:58- 12:09(JST)
                                                              BB B9 BB BC B8 
¡¡HI HI AE C7 88 51 14 40 FF 0D 
¡¡HI HI AE 07 88 51 03 40 0A 0D 00 2E 2D 38 80 60 93 90 B0 75 BB B8 BA BB B8 
¡¡HI HI AE C7 88 51 07 40 FF 0D 00 2E A2 49 89 60 93 90 9E 78 BD B8 BA BC B8 
¡¡HI HI AE C7 88 51 0E 40 FF 0D 00 2E 2E 76 80 60 92 91 9F 65 BA B8 BA BB B8 
¡¡HI HI AE C7 88 51 13 40 FF 1E 00 2E 93 3A 8A 60 92 91 A0 97 BB B8 BA BB B8 
¡¡HI HI AE C7 88 51 18 40 FF 0D 00 2E 37 65 82 5F 93 92 A0 8F BA B7 BA BB B8 
¡¡HI HI AE C7 88 51 1D 40 FF 0D 00 2E 80 3B 83 60 94 92 A1 77 BA B7 BA BB B8 
¡¡HI HI AE C7 88 51 02 40 FF 0D 00 2E 3F 4C 82 5F 93 92 A1 79 BA B7 BA BB B8 
¡¡HI HI AE C7 88 51 06 40 FF 0D 00 2E 6A 45 80 60 92 92 A0 6B BA B7 B9 BB B8 
¡¡HI HI AE C7 88 51 0D 40 FF 0D 00 2E 47 34 81 60 92 92 A0¡¡

¡¡AS18577C1  22May2000
¡¡11:10-11:17(JST)
¡¡                                    7C 3D 75 4C 95 90 B0 81 BB BA BC BB B9 
¡¡HI HI AE C7 88 55 01 3E 0A 0D 00 2E 74 A8 78 4C 94 91 B0 76 BB BA BC BA B9 
¡¡HI HI AE C7 88 55 06 3E 05 0D 00 2E 65 33 7F 61 94 91 B0 80 BA BA BB BA B9   
¡¡HI HI AE C7 88 55 0B 3E FF 0D 00 2E 68 31 7B 61 94 91 B0 85 BB BA BB BA B9
¡¡HI HI AE C7 88 55 10 3E FF 0D 00 2E 6D 2E 84 61 94 91 B0 75 BB BA BB BA B9
¡¡HI HI AE C7 88 55 1A 3E FF 0D 00 2E 63 94 7C 48 94 91 B0 73 BA BA BB BA B9 
¡¡HI HI AE 07 88 55 19 3E FF 0D 00 2E 73 29 88 42 94 92 B0 7F BA BA BB BA B9 
¡¡HI HI AE C7 88 55 1F 3E FF 0D 00 2E 57 7E 7F 60 94 92 A1 6F BA B9 BB BA B9 
¡¡HI HI AE C7 88 55 03 3E 0A 0D 00 2E 7B 29 89 60 92 90 9F 7B BA B9 BB BA B9 
¡¡HI HI AE C7 88 55 09 3E FF 0D 00 2E 51 64 87 60 93 91 B0 80 BA B9 BA BA B9 
¡¡HI HI AE C7 88 55 0E 3E FF 0D 00 2E 89 2E 88 45 93 92 B0 70 BA B9 BB BA B9 
¡¡HI HI AE C7 88 55 13 3E FF 0D 00 2E 50 4A 8A 60 92 90 B0 70 B9 B9 BA BA B9 
¡¡HI HI AE C7 88 55 18 3E 0A 0D 00 2E 74 35 81 61 93 91 B0 82 B9 B9 BA B9 B9¡¡

¡¡------------------------¡¡£Æ£Ï-£²£¹¤Îµ°Æ»Í×ÁÇ¡¡------------------------------        
 
¡¡¡¡¢£ µ°Æ»Í×ÁÇ£±¡§¡Öjamsat¡Ýkeps¡§£¹£¹£¶¡×¤è¤ê         
¡¡¡¡¡¡¡¡¡¡¡¡¡¡¡¡¡¡¡¡¡¡¡¡SB KEPS @ AMSAT  $ORB00147.N
¡¡¡¡¡¡¡¡¡¡¡¡¡¡¡¡¡¡¡¡¡¡¡¡2Line Orbital Elements 00147.AMSAT

¡¡HR AMSAT ORBITAL ELEMENTS FOR AMATEUR SATELLITES IN NASA FORMAT
¡¡FROM WA5QGD FORT WORTH,TX May 26, 2000
¡¡SEND SUBSCRIBE/UNSUBSCRIBE TO majordomo@amsat.org ONLY
¡¡BID: ORB00147.N

 ¡¡DECODE 2-LINE ELSETS WITH THE FOLLOWING KEY:
 ¡¡1 AAAAAU 00  0  0 BBBBB.BBBBBBBB  .CCCCCCCC  00000-0  00000-0 0  DDDZ
 ¡¡2 AAAAA EEE.EEEE FFF.FFFF GGGGGGG HHH.HHHH III.IIII JJ.JJJJJJJJKKKKKZ
 ¡¡KEY: A-CATALOGNUM B-EPOCHTIME C-DECAY D-ELSETNUM E-INCLINATION F-RAAN
 ¡¡G-ECCENTRICITY H-ARGPERIGEE I-MNANOM J-MNMOTION K-ORBITNUM Z-CHECKSUM

 ¡¡TO ALL RADIO AMATEURS BT

¡¡FO-29
¡¡1 24278U 96046B   00146.78152597  .00000040  00000-0  80422-4 0  3328
¡¡2 24278  98.5885  57.5780 0350493 285.0146  71.2457 13.52723113186267

 ¢£ µ°Æ»Í×ÁÇ£²¡§¡Öjamsat¡Ýkeps¡§£¹£¹£·¡×¤è¤ê                    
¡¡¡¡¡¡¡¡¡¡¡¡¡¡¡¡¡¡SB KEPS @ AMSAT  $ORB00147.O
¡¡¡¡¡¡¡¡¡¡¡¡¡¡¡¡¡¡Orbital Elements  00147.OSCAR

¡¡HR AMSAT ORBITAL ELEMENTS FOR OSCAR SATELLITES
¡¡FROM WA5QGD FORT WORTH,TX May 26, 2000
¡¡SEND SUBSCRIBE/UNSUBSCRIBE TO majordomo@amsat.org ONLY
¡¡BID: ORB00147.O
¡¡TO ALL RADIO AMATEURS BT
¡¡
  Satellite: FO-29
¡¡Catalog number: 24278
¡¡Epoch time:      00146.78152597
¡¡Element set:     332
¡¡Inclination:       98.5885 deg
¡¡RA of node:        57.5780 deg
¡¡Eccentricity:    0.0350493
¡¡Arg of perigee:   285.0146 deg
¡¡Mean anomaly:      71.2457 deg
¡¡Mean motion:   13.52723113 rev/day
¡¡Decay rate:        4.0e-07 rev/day^2
¡¡Epoch rev:           18626
¡¡Checksum:              314

-------------------¡¡¡¡FO-29¡ÊJAS-2)¤Î¥Æ¥ì¥á¥È¥ê¤Ë´Ø¤¹¤ë¾ðÊó¡¡¡¡----------------------
¡¡
¡¡£²¡Ë£µ·î£²£¶Æü¡Ê¶â¡Ë¤Î¥Æ¥ì¥á¥È¥ê¤ÎºÇ¸å¤Î¹Ô¤ÎÊÑ´¹Îã¤Ç¤¹.

¡¡¡¡AS18631C1   26May2000
¡¡¡¡10:54-11:07(JST)
¡¡¡¡Freq. 435.805-.787MHz  CW                                                   
¡¡
¡¡HI HI AE 07 88 55 08 48 FF 1A 00 2E 60 B7 71 4E 94 92 B0 8B BC B7 B8 BC B9¡¡  
¡¡¡¡
¡¡¥Æ¥ì¥á¥È¥ê¡¡¡¡	Æâ   ÍÆ	¡¡¡¡¡¡¡¡	´¹»»ÃÍ	ñ °Ì  
¡¡£³£Ã	¼§µ¤¥»¥ó¥µ¡¼£Ú¼´=	47058.8	[nT]
¡¡£³£Ä	¼§µ¤¥»¥ó¥µ£Ø¼´  =	89705.9	[nT]
¡¡£´£Á	ÂÀÍÛÅÅÃÓȯÀ¸ÅÅή=	 1107.9	[mA]
¡¡£´£Â	£Â½¼ÊüÅÅÅÅή	=	 -471.2	[mA]
¡¡£´£Ã	£Âü»ÒÅÅ°µ	=	   15.9	[V]
¡¡£´£Ä	£ÂÃæ´Öü»ÒÅÅ°µ	=	    7.0	[V]
¡¡£µ£Á	¥Ð¥¹ÅÅ°µ	¡¡¡¡¡¡¡¡ =	   17.3	[V]
¡¡£µ£Â	£Ê£Ô£ÁÁ÷¿®ÅÅÎÏ	=	  805.4	[mW]
¡¡£µ£Ã 	¹½Âβ¹ÅÙ£±	=	    8.9	[¡î]
¡¡£µ£Ä	¹½Âβ¹ÅÙ£²	=	   10.8	[¡î]
¡¡£¶£Á	¹½Âβ¹ÅÙ£³	=	   10.4	[¡î]
¡¡£¶£Â	¹½Âβ¹ÅÙ£´	=	    8.9	[¡î]
¡¡£¶£Ã	£Â¥»¥ë²¹ÅÙ	=	   10.0	[¡î]

 * OS¤ÏWindows 2000,Office¡¡2000¡¡¤Ë¤Æ·×»»½èÍý.
¡¡
 ===========================¡¡¡¡FO-29¡Ê¤Õ¤¸£³¹æ¡Ë¤ÎQSO¾ðÊóÅù¡¡======================
   
¡¡£³) [jamsat-bb:5316] SSTV ¤Ë¤ª¤¤¤ÆµÜÀî¡¡¥Ò¥í¥·»á¤¬¡¡SSTV¤Ë¤Ä¤¤¤ÆÅê¹Æ¤µ¤ì¤Æ¤¤¤Þ¤·¤¿¤Î¤Ç
¡¡¡¡¡¡Å¾ºÜ¤µ¤»¤Æ夭¤Þ¤·¤¿.

miyahi> À躢¡¡JE2VVN¡¡°æ¾å¤µ¤ó¤«¤é¥ì¥Ý¡¼¥È¤¢¤ê¤Þ¤·¤¿JH2ESW¶É¤È¡¢
miyahi> £Æ£Ï¡Ý£²£¹¤Î¥ª¡¼¥Ó¥Ã¥È¤Ç£Ó£Ó£Ô£Ö¤Ë¤è¤ë¸ò¿®¤¬½ÐÍè¤Þ¤·¤¿¡£
miyahi> 
miyahi> ¤È¤³¤í¤É¤³¤í£Ñ£Ó£Â¡©¤Ë¤è¤ëÍð¤ì¤¬¤¢¤ê¤Þ¤¹¤¬¡¢Á÷¤é¤ì¤¿
miyahi> ¥³¡¼¥ë¥µ¥¤¥ó¤ä²Ö¤Î²èÁü¤¬¤«¤Ê¤êÎɹ¥¤Ë¼õ¿®¤Ç¤­¤Þ¤·¤¿¡£
miyahi> Åö¶É¤«¤é¤Î²èÁü¤â£µ£¶£µ¤Î¥ì¥Ý¡¼¥È夭¤Þ¤·¤¿¡£
miyahi> 
miyahi> JH2ESW¶É¤Ï°ú¤­Â³¤­£Æ£Ï¡¼£²£°¡¤£²£¹¤Î¥ª¡¼¥Ó¥Ã¥È¤Ç£Ñ£Ò£Ö
miyahi> ¤µ¤ì¤Æ¤¤¤Þ¤¹¡£¥¢¥Ã¥×¥ê¥ó¥¯¤Ï145.950Mhz¡¢¥â¡¼¥É£Ó£²¤Ç¤¹¡£
miyahi> ¡¡¡¡¡¡¡¡¡¡¡¡¡¡¡¡¡¡¡¡¡¡¡¡¡¡¡¡¡¡¡¡¡¡¡¡¡¡de¡¡JA2EJ¡¡µÜÀî
miyahi> 
miyahi>                                         -------------------------
miyahi>                                              HIROSHI MIYAGAWA 
miyahi>                                          miyahi@wa2.so-net.ne.jp
 
 ====================================================================================
¡¡¡¡¡¡£´¡Ë£Ê£Á£Ò£Ì ¤Î¥Û¡¼¥à¥Ú¡¼¥¸¤Ë±¿ÍÑͽÄ꤬µ­ºÜ¤µ¤ì¤Æ¤¤¤Þ¤·¤¿¤Î¤Ç¤´¾Ò²ð¤·¤Þ¤¹¡¥
       ¡Ê http://www.jarl.or.jp/Japanese/3_Fuji/new/uy.htm ¡Ë

        ¢£ ¤Õ¤¸£³¹æ¡¿FO¡¼29/JAS-2 ¢£  
  ¡¡
¡¡¡¡¡¡¡¡¡¡¡ö¡ö¡ö¡¡±¿ÍÑͽÄê¤Ë¤Ä¤¤¤Æ¡¡¡ö¡ö¡ö¡¡  

¡¡£°£µ·î£°£¸Æü¡¡¡Á¡¡£°£¶·î£°£¸Æü ¥¢¥Ê¥í¥°·Ï±¿ÍÑ

¡¡¢¨£µ·î£¸Æü¡Ê·î¡Ë¤«¤é£±£´Æü¡ÊÆü¡ËËø¡¤¡Ö¥Ç¥¸¥¿¥ë·Ï£±£²£°£°£â£ð£ó¥á¡¼¥ë¥Ü¥Ã¥¯¥¹±¿ÍѡפǤ·¤¿¤¬
¡¡¡¡ÃϾ庮¿®¤¬Í¾¤ê¤Ë¤â¹ó¤¤¤¿¤á¡¤¥Ç¥¸¥¿¥ë·Ï¤ËÀڤ괹¤¨¤ë¤³¤È¤¬½ÐÍè¤Þ¤»¤ó¤Î¤Ç¡¤Í½Äê¤òÊѹ¹¤·¤Æ
¡¡¡¡¥¢¥Ê¥í¥°·Ï±¿ÍѤÈÃפ·¤Þ¤¹¡£

¡¡¡ö¤Ê¤ª¡¤±¿ÍÑͽÄê¤ÏÅÔ¹ç¤Ë¤è¤êÊѹ¹¤¹¤ë¤³¤È¤¬¤¢¤ê¤Þ¤¹¤Î¤Ç¤´Î»¾µ´ê¤¤¤Þ¤¹¡£

¡¡¾È²ñÀè¡¡¡§¡¡lab@jarl.or.jp

¡¡ºÇ¿·¤Î¾ðÊó¤Ï¥Æ¥ì¥Û¥ó¥µ¡¼¥Ó¥¹¡Ê£°£³¡Ý£³£¹£´£²¡Ý£±£°£°£°¡Ë¤ò¤ªÊ¹¤­¤¯¤À¤µ¤¤¡£¡¡¡¡
¡¡°Ê¸å¤Î±¿ÍѤˤĤ­¤Þ¤·¤Æ¤Ï£µ·î²¼½Ü¤Ë¤ªÃΤ餻¤¤¤¿¤·¤Þ¤¹¡£

-----------------------    £Æ£Ï¡Ý£²£°¡ÊJAS-£±£â¡ËÆ»Í×ÁÇ   -------------------------
 ¡¡£µ¡Ë
 ¡¡¢£ µ°Æ»Í×ÁÇ£± ¡§½Ðŵ¤Ï£Æ£Ï-£²£¹¡Ö¤Õ¤¸£³¹æ¡×¤ËƱ¤¸¡¥
  
 ¡¡FO-20
¡¡1 20480U 90013C   00146.85065156 -.00000004  00000-0  54478-4 0  2286
¡¡2 20480  99.0504 281.4405 0540989 105.8164 260.3245 12.83273803482415
 
 ¡¡¢£ µ°Æ»Í×ÁÇ£² ¡§½Ðŵ¤Ï£Æ£Ï¡Ý£²£¹¡Ö¤Õ¤¸£³¹æ¡×¤ËƱ¤¸¡¥
               
